![]() |
EMODnet Physics ERDDAP
Easier access to scientific data |
log in|
Brought to you by EMODnet Physics |
| Dataset Title: | NDBC - Collection of dew point temperature (DEWT) TimeSeries - IN SITU MultiPointTimeSeriesObservation
|
| Institution: | NDBC (Dataset ID: TS_DEWT_NDBC) |
| Information: | Summary
| License
| FGDC
| ISO 19115
| Metadata
| Background
| Subset
| Data Access Form
| Make a graph
|
| Name | Last modified | Size | Description | |
|---|---|---|---|---|
| Parent Directory | - | - | ||
| MISM1_TS_DEWT_011985.nc | 27-Oct-2024 14:07 | 442271 | ||
| MISM1_TS_DEWT_011986.nc | 27-Oct-2024 14:07 | 429621 | ||
| MISM1_TS_DEWT_011987.nc | 27-Oct-2024 14:07 | 449373 | ||
| MISM1_TS_DEWT_011988.nc | 27-Oct-2024 14:07 | 449119 | ||
| MISM1_TS_DEWT_011989.nc | 27-Oct-2024 14:07 | 450244 | ||
| MISM1_TS_DEWT_011990.nc | 27-Oct-2024 14:07 | 450775 | ||
| MISM1_TS_DEWT_011991.nc | 27-Oct-2024 14:07 | 451145 | ||
| MISM1_TS_DEWT_011992.nc | 27-Oct-2024 14:08 | 429669 | ||
| MISM1_TS_DEWT_011993.nc | 27-Oct-2024 14:08 | 429604 | ||
| MISM1_TS_DEWT_011994.nc | 27-Oct-2024 14:08 | 429250 | ||
| MISM1_TS_DEWT_011995.nc | 27-Oct-2024 14:08 | 429726 | ||
| MISM1_TS_DEWT_011996.nc | 27-Oct-2024 14:08 | 429835 | ||
| MISM1_TS_DEWT_011997.nc | 27-Oct-2024 14:08 | 429832 | ||
| MISM1_TS_DEWT_011998.nc | 27-Oct-2024 14:08 | 429836 | ||
| MISM1_TS_DEWT_011999.nc | 27-Oct-2024 14:08 | 429334 | ||
| MISM1_TS_DEWT_012000.nc | 27-Oct-2024 14:08 | 429436 | ||
| MISM1_TS_DEWT_012001.nc | 27-Oct-2024 14:08 | 429838 | ||
| MISM1_TS_DEWT_012002.nc | 27-Oct-2024 14:08 | 429834 | ||
| MISM1_TS_DEWT_012003.nc | 27-Oct-2024 14:08 | 429835 | ||
| MISM1_TS_DEWT_012004.nc | 27-Oct-2024 14:08 | 1259641 | ||
| MISM1_TS_DEWT_012005.nc | 27-Oct-2024 14:08 | 1144093 | ||
| MISM1_TS_DEWT_012006.nc | 27-Oct-2024 14:08 | 429830 | ||
| MISM1_TS_DEWT_012007.nc | 27-Oct-2024 14:08 | 1151719 | ||
| MISM1_TS_DEWT_012008.nc | 27-Oct-2024 14:08 | 1144190 | ||
| MISM1_TS_DEWT_012009.nc | 27-Oct-2024 14:08 | 1144142 | ||
| MISM1_TS_DEWT_012011.nc | 27-Oct-2024 14:09 | 1265535 | ||
| MISM1_TS_DEWT_012012.nc | 27-Oct-2024 14:09 | 429270 | ||
| MISM1_TS_DEWT_012013.nc | 27-Oct-2024 14:09 | 429287 | ||
| MISM1_TS_DEWT_012014.nc | 27-Oct-2024 14:09 | 449300 | ||
| MISM1_TS_DEWT_012015.nc | 27-Oct-2024 14:09 | 449688 | ||
| MISM1_TS_DEWT_012016.nc | 27-Oct-2024 14:09 | 449407 | ||
| MISM1_TS_DEWT_012017.nc | 27-Oct-2024 14:09 | 429282 | ||
| MISM1_TS_DEWT_012018.nc | 27-Oct-2024 14:09 | 449255 | ||
| MISM1_TS_DEWT_012019.nc | 27-Oct-2024 14:09 | 448532 | ||
| MISM1_TS_DEWT_012021.nc | 27-Oct-2024 14:09 | 449709 | ||
| MISM1_TS_DEWT_012023.nc | 27-Oct-2024 14:09 | 449771 | ||
| MISM1_TS_DEWT_012024.nc | 27-Oct-2024 14:09 | 449176 | ||
| MISM1_TS_DEWT_012026.nc | 02-Feb-2026 17:56 | 429286 | ||
| MISM1_TS_DEWT_021985.nc | 27-Oct-2024 14:09 | 429402 | ||
| MISM1_TS_DEWT_021986.nc | 27-Oct-2024 14:09 | 428513 | ||
| MISM1_TS_DEWT_021987.nc | 27-Oct-2024 14:09 | 429494 | ||
| MISM1_TS_DEWT_021988.nc | 27-Oct-2024 14:09 | 429492 | ||
| MISM1_TS_DEWT_021989.nc | 27-Oct-2024 14:09 | 429441 | ||
| MISM1_TS_DEWT_021990.nc | 27-Oct-2024 14:09 | 429475 | ||
| MISM1_TS_DEWT_021991.nc | 27-Oct-2024 14:10 | 429036 | ||
| MISM1_TS_DEWT_021992.nc | 27-Oct-2024 14:10 | 429405 | ||
| MISM1_TS_DEWT_021993.nc | 27-Oct-2024 14:10 | 429492 | ||
| MISM1_TS_DEWT_021994.nc | 27-Oct-2024 14:10 | 429495 | ||
| MISM1_TS_DEWT_021995.nc | 27-Oct-2024 14:10 | 429490 | ||
| MISM1_TS_DEWT_021996.nc | 27-Oct-2024 14:10 | 1112605 | ||
| MISM1_TS_DEWT_021997.nc | 27-Oct-2024 14:10 | 916842 | ||
| MISM1_TS_DEWT_021998.nc | 27-Oct-2024 14:10 | 429492 | ||
| MISM1_TS_DEWT_021999.nc | 27-Oct-2024 14:10 | 998104 | ||
| MISM1_TS_DEWT_022000.nc | 27-Oct-2024 14:10 | 995746 | ||
| MISM1_TS_DEWT_022001.nc | 27-Oct-2024 14:10 | 995729 | ||
| MISM1_TS_DEWT_022002.nc | 27-Oct-2024 14:10 | 1112003 | ||
| MISM1_TS_DEWT_022003.nc | 27-Oct-2024 14:10 | 429608 | ||
| MISM1_TS_DEWT_022004.nc | 27-Oct-2024 14:10 | 434559 | ||
| MISM1_TS_DEWT_022005.nc | 27-Oct-2024 14:10 | 450743 | ||
| MISM1_TS_DEWT_022006.nc | 27-Oct-2024 14:10 | 428168 | ||
| MISM1_TS_DEWT_022007.nc | 27-Oct-2024 14:10 | 449702 | ||
| MISM1_TS_DEWT_022008.nc | 27-Oct-2024 14:10 | 429620 | ||
| MISM1_TS_DEWT_022009.nc | 27-Oct-2024 14:10 | 449343 | ||
| MISM1_TS_DEWT_022011.nc | 27-Oct-2024 14:10 | 448941 | ||
| MISM1_TS_DEWT_022012.nc | 27-Oct-2024 14:11 | 450880 | ||
| MISM1_TS_DEWT_022013.nc | 27-Oct-2024 14:11 | 451220 | ||
| MISM1_TS_DEWT_022014.nc | 27-Oct-2024 14:11 | 450473 | ||
| MISM1_TS_DEWT_022015.nc | 27-Oct-2024 14:11 | 429733 | ||
| MISM1_TS_DEWT_022016.nc | 27-Oct-2024 14:11 | 429758 | ||
| MISM1_TS_DEWT_022017.nc | 27-Oct-2024 14:11 | 428157 | ||
| MISM1_TS_DEWT_022018.nc | 27-Oct-2024 14:11 | 428946 | ||
| MISM1_TS_DEWT_022019.nc | 27-Oct-2024 14:11 | 429834 | ||
| MISM1_TS_DEWT_022022.nc | 27-Oct-2024 14:11 | 429834 | ||
| MISM1_TS_DEWT_022023.nc | 27-Oct-2024 14:11 | 429837 | ||
| MISM1_TS_DEWT_022024.nc | 16-Sep-2024 16:51 | 429429 | ||
| MISM1_TS_DEWT_022026.nc | 01-Mar-2026 07:35 | 429662 | ||
| MISM1_TS_DEWT_031985.nc | 27-Oct-2024 14:11 | 429837 | ||
| MISM1_TS_DEWT_031986.nc | 27-Oct-2024 14:11 | 429829 | ||
| MISM1_TS_DEWT_031987.nc | 27-Oct-2024 14:11 | 429839 | ||
| MISM1_TS_DEWT_031988.nc | 27-Oct-2024 14:11 | 1266936 | ||
| MISM1_TS_DEWT_031989.nc | 27-Oct-2024 14:11 | 1142930 | ||
| MISM1_TS_DEWT_031990.nc | 27-Oct-2024 14:11 | 611278 | ||
| MISM1_TS_DEWT_031991.nc | 27-Oct-2024 14:11 | 1143771 | ||
| MISM1_TS_DEWT_031992.nc | 27-Oct-2024 14:11 | 1143995 | ||
| MISM1_TS_DEWT_031993.nc | 27-Oct-2024 14:11 | 1144204 | ||
| MISM1_TS_DEWT_031994.nc | 27-Oct-2024 14:11 | 1262484 | ||
| MISM1_TS_DEWT_031995.nc | 27-Oct-2024 14:11 | 429288 | ||
| MISM1_TS_DEWT_031996.nc | 27-Oct-2024 14:12 | 449935 | ||
| MISM1_TS_DEWT_031997.nc | 27-Oct-2024 14:12 | 448452 | ||
| MISM1_TS_DEWT_031998.nc | 27-Oct-2024 14:12 | 426134 | ||
| MISM1_TS_DEWT_031999.nc | 27-Oct-2024 14:12 | 449646 | ||
| MISM1_TS_DEWT_032000.nc | 27-Oct-2024 14:12 | 429287 | ||
| MISM1_TS_DEWT_032001.nc | 27-Oct-2024 14:12 | 449338 | ||
| MISM1_TS_DEWT_032002.nc | 27-Oct-2024 14:12 | 448483 | ||
| MISM1_TS_DEWT_032003.nc | 27-Oct-2024 14:12 | 449594 | ||
| MISM1_TS_DEWT_032004.nc | 27-Oct-2024 14:12 | 449508 | ||
| MISM1_TS_DEWT_032005.nc | 27-Oct-2024 14:12 | 449689 | ||
| MISM1_TS_DEWT_032006.nc | 27-Oct-2024 14:12 | 429384 | ||
| MISM1_TS_DEWT_032007.nc | 27-Oct-2024 14:12 | 429031 | ||
| MISM1_TS_DEWT_032008.nc | 27-Oct-2024 14:12 | 428849 | ||
| MISM1_TS_DEWT_032009.nc | 27-Oct-2024 14:13 | 429114 | ||
| MISM1_TS_DEWT_032010.nc | 27-Oct-2024 14:13 | 429491 | ||
| MISM1_TS_DEWT_032011.nc | 27-Oct-2024 14:13 | 429492 | ||
| MISM1_TS_DEWT_032012.nc | 27-Oct-2024 14:13 | 429477 | ||
| MISM1_TS_DEWT_032013.nc | 27-Oct-2024 14:13 | 428988 | ||
| MISM1_TS_DEWT_032014.nc | 27-Oct-2024 14:13 | 429258 | ||
| MISM1_TS_DEWT_032015.nc | 27-Oct-2024 14:13 | 429491 | ||
| MISM1_TS_DEWT_032016.nc | 27-Oct-2024 14:13 | 429495 | ||
| MISM1_TS_DEWT_032017.nc | 27-Oct-2024 14:13 | 429472 | ||
| MISM1_TS_DEWT_032018.nc | 27-Oct-2024 14:13 | 1027857 | ||
| MISM1_TS_DEWT_032019.nc | 27-Oct-2024 14:13 | 992878 | ||
| MISM1_TS_DEWT_032022.nc | 27-Oct-2024 14:13 | 1111295 | ||
| MISM1_TS_DEWT_032023.nc | 27-Oct-2024 14:13 | 992992 | ||
| MISM1_TS_DEWT_032026.nc | 21-Mar-2026 08:24 | 995718 | ||
| MISM1_TS_DEWT_041985.nc | 27-Oct-2024 14:13 | 995807 | ||
| MISM1_TS_DEWT_041986.nc | 27-Oct-2024 14:13 | 1112657 | ||
| MISM1_TS_DEWT_041987.nc | 27-Oct-2024 14:13 | 429616 | ||
| MISM1_TS_DEWT_041988.nc | 27-Oct-2024 14:13 | 451242 | ||
| MISM1_TS_DEWT_041989.nc | 27-Oct-2024 14:14 | 450542 | ||
| MISM1_TS_DEWT_041990.nc | 27-Oct-2024 14:14 | 450935 | ||
| MISM1_TS_DEWT_041991.nc | 27-Oct-2024 14:14 | 450963 | ||
| MISM1_TS_DEWT_041992.nc | 27-Oct-2024 14:14 | 429609 | ||
| MISM1_TS_DEWT_041993.nc | 27-Oct-2024 14:14 | 450652 | ||
| MISM1_TS_DEWT_041994.nc | 27-Oct-2024 14:14 | 450085 | ||
| MISM1_TS_DEWT_041995.nc | 27-Oct-2024 14:14 | 449084 | ||
| MISM1_TS_DEWT_041996.nc | 27-Oct-2024 14:14 | 450552 | ||
| MISM1_TS_DEWT_041997.nc | 27-Oct-2024 14:14 | 449034 | ||
| MISM1_TS_DEWT_041998.nc | 27-Oct-2024 14:14 | 429608 | ||
| MISM1_TS_DEWT_041999.nc | 27-Oct-2024 14:14 | 429685 | ||
| MISM1_TS_DEWT_042000.nc | 27-Oct-2024 14:14 | 429768 | ||
| MISM1_TS_DEWT_042001.nc | 27-Oct-2024 14:14 | 429801 | ||
| MISM1_TS_DEWT_042002.nc | 27-Oct-2024 14:14 | 429835 | ||
| MISM1_TS_DEWT_042003.nc | 27-Oct-2024 14:14 | 429837 | ||
| MISM1_TS_DEWT_042004.nc | 27-Oct-2024 14:14 | 429819 | ||
| MISM1_TS_DEWT_042005.nc | 27-Oct-2024 14:15 | 429310 | ||
| MISM1_TS_DEWT_042006.nc | 27-Oct-2024 14:15 | 428154 | ||
| MISM1_TS_DEWT_042007.nc | 27-Oct-2024 14:15 | 429832 | ||
| MISM1_TS_DEWT_042008.nc | 27-Oct-2024 14:15 | 429832 | ||
| MISM1_TS_DEWT_042009.nc | 27-Oct-2024 14:15 | 429836 | ||
| MISM1_TS_DEWT_042011.nc | 27-Oct-2024 14:15 | 1144166 | ||
| MISM1_TS_DEWT_042012.nc | 27-Oct-2024 14:15 | 915599 | ||
| MISM1_TS_DEWT_042013.nc | 27-Oct-2024 14:15 | 1263879 | ||
| MISM1_TS_DEWT_042014.nc | 27-Oct-2024 14:15 | 1144115 | ||
| MISM1_TS_DEWT_042015.nc | 27-Oct-2024 14:15 | 1144164 | ||
| MISM1_TS_DEWT_042016.nc | 27-Oct-2024 14:15 | 1144210 | ||
| MISM1_TS_DEWT_042017.nc | 27-Oct-2024 14:15 | 1341372 | ||
| MISM1_TS_DEWT_042018.nc | 27-Oct-2024 14:15 | 429686 | ||
| MISM1_TS_DEWT_042019.nc | 27-Oct-2024 14:15 | 429692 | ||
| MISM1_TS_DEWT_042022.nc | 27-Oct-2024 14:15 | 429686 | ||
| MISM1_TS_DEWT_042023.nc | 27-Oct-2024 14:15 | 429684 | ||
| MISM1_TS_DEWT_051985.nc | 27-Oct-2024 14:15 | 429691 | ||
| MISM1_TS_DEWT_051986.nc | 27-Oct-2024 14:15 | 429699 | ||
| MISM1_TS_DEWT_051987.nc | 27-Oct-2024 14:16 | 429686 | ||
| MISM1_TS_DEWT_051988.nc | 27-Oct-2024 14:16 | 429692 | ||
| MISM1_TS_DEWT_051989.nc | 27-Oct-2024 14:16 | 429993 | ||
| MISM1_TS_DEWT_051990.nc | 27-Oct-2024 14:16 | 429909 | ||
| MISM1_TS_DEWT_051991.nc | 27-Oct-2024 14:16 | 429912 | ||
| MISM1_TS_DEWT_051992.nc | 27-Oct-2024 14:16 | 429906 | ||
| MISM1_TS_DEWT_051993.nc | 27-Oct-2024 14:16 | 429920 | ||
| MISM1_TS_DEWT_051994.nc | 27-Oct-2024 14:16 | 421847 | ||
| MISM1_TS_DEWT_051995.nc | 27-Oct-2024 14:16 | 429886 | ||
| MISM1_TS_DEWT_051996.nc | 27-Oct-2024 14:16 | 429911 | ||
| MISM1_TS_DEWT_051997.nc | 27-Oct-2024 14:16 | 429899 | ||
| MISM1_TS_DEWT_051998.nc | 27-Oct-2024 14:16 | 1261912 | ||
| MISM1_TS_DEWT_051999.nc | 27-Oct-2024 14:16 | 1214692 | ||
| MISM1_TS_DEWT_052000.nc | 27-Oct-2024 14:17 | 1262438 | ||
| MISM1_TS_DEWT_052001.nc | 27-Oct-2024 14:17 | 1264136 | ||
| MISM1_TS_DEWT_052002.nc | 27-Oct-2024 14:17 | 1143195 | ||
| MISM1_TS_DEWT_052003.nc | 27-Oct-2024 14:17 | 1263258 | ||
| MISM1_TS_DEWT_052004.nc | 27-Oct-2024 14:17 | 1244712 | ||
| MISM1_TS_DEWT_052005.nc | 27-Oct-2024 14:17 | 1261544 | ||
| MISM1_TS_DEWT_052006.nc | 27-Oct-2024 14:17 | 1259105 | ||
| MISM1_TS_DEWT_052007.nc | 27-Oct-2024 14:17 | 1090332 | ||
| MISM1_TS_DEWT_052008.nc | 27-Oct-2024 14:17 | 428676 | ||
| MISM1_TS_DEWT_052009.nc | 27-Oct-2024 14:17 | 429036 | ||
| MISM1_TS_DEWT_052011.nc | 27-Oct-2024 14:17 | 428688 | ||
| MISM1_TS_DEWT_052012.nc | 27-Oct-2024 14:17 | 428690 | ||
| MISM1_TS_DEWT_052013.nc | 27-Oct-2024 14:17 | 428688 | ||
| MISM1_TS_DEWT_052014.nc | 27-Oct-2024 14:17 | 429034 | ||
| MISM1_TS_DEWT_052015.nc | 27-Oct-2024 14:17 | 428691 | ||
| MISM1_TS_DEWT_052016.nc | 27-Oct-2024 14:17 | 428687 | ||
| MISM1_TS_DEWT_052017.nc | 27-Oct-2024 14:18 | 429224 | ||
| MISM1_TS_DEWT_052018.nc | 27-Oct-2024 14:18 | 428883 | ||
| MISM1_TS_DEWT_052022.nc | 27-Oct-2024 14:18 | 428884 | ||
| MISM1_TS_DEWT_052023.nc | 27-Oct-2024 14:18 | 428880 | ||
| MISM1_TS_DEWT_061985.nc | 27-Oct-2024 14:18 | 429230 | ||
| MISM1_TS_DEWT_061986.nc | 27-Oct-2024 14:18 | 428620 | ||
| MISM1_TS_DEWT_061987.nc | 27-Oct-2024 14:18 | 428661 | ||
| MISM1_TS_DEWT_061988.nc | 27-Oct-2024 14:18 | 429229 | ||
| MISM1_TS_DEWT_061989.nc | 27-Oct-2024 14:18 | 1102875 | ||
| MISM1_TS_DEWT_061990.nc | 27-Oct-2024 14:18 | 1030458 | ||
| MISM1_TS_DEWT_061991.nc | 27-Oct-2024 14:18 | 1026895 | ||
| MISM1_TS_DEWT_061992.nc | 27-Oct-2024 14:18 | 1025137 | ||
| MISM1_TS_DEWT_061993.nc | 27-Oct-2024 14:18 | 992643 | ||
| MISM1_TS_DEWT_061994.nc | 27-Oct-2024 14:18 | 1024229 | ||
| MISM1_TS_DEWT_061995.nc | 27-Oct-2024 14:18 | 1020276 | ||
| MISM1_TS_DEWT_061996.nc | 27-Oct-2024 14:18 | 1028143 | ||
| MISM1_TS_DEWT_061997.nc | 27-Oct-2024 14:19 | 1078285 | ||
| MISM1_TS_DEWT_061998.nc | 27-Oct-2024 14:19 | 4862891 | ||
| MISM1_TS_DEWT_061999.nc | 27-Oct-2024 14:19 | 429690 | ||
| MISM1_TS_DEWT_062000.nc | 27-Oct-2024 14:19 | 429692 | ||
| MISM1_TS_DEWT_062001.nc | 27-Oct-2024 14:19 | 429698 | ||
| MISM1_TS_DEWT_062002.nc | 27-Oct-2024 14:19 | 429685 | ||
| MISM1_TS_DEWT_062003.nc | 27-Oct-2024 14:19 | 429686 | ||
| MISM1_TS_DEWT_062004.nc | 27-Oct-2024 14:19 | 429693 | ||
| MISM1_TS_DEWT_062005.nc | 27-Oct-2024 14:19 | 429686 | ||
| MISM1_TS_DEWT_062006.nc | 27-Oct-2024 14:19 | 420344 | ||
| MISM1_TS_DEWT_062007.nc | 27-Oct-2024 14:19 | 429692 | ||
| MISM1_TS_DEWT_062008.nc | 27-Oct-2024 14:19 | 429906 | ||
| MISM1_TS_DEWT_062009.nc | 27-Oct-2024 14:19 | 429914 | ||
| MISM1_TS_DEWT_062011.nc | 27-Oct-2024 14:19 | 429907 | ||
| MISM1_TS_DEWT_062012.nc | 27-Oct-2024 14:19 | 429895 | ||
| MISM1_TS_DEWT_062013.nc | 27-Oct-2024 14:19 | 429911 | ||
| MISM1_TS_DEWT_062014.nc | 27-Oct-2024 14:20 | 429908 | ||
| MISM1_TS_DEWT_062015.nc | 27-Oct-2024 14:20 | 429687 | ||
| MISM1_TS_DEWT_062016.nc | 27-Oct-2024 14:20 | 429915 | ||
| MISM1_TS_DEWT_062017.nc | 27-Oct-2024 14:20 | 1264449 | ||
| MISM1_TS_DEWT_062018.nc | 27-Oct-2024 14:20 | 1263031 | ||
| MISM1_TS_DEWT_062022.nc | 27-Oct-2024 14:20 | 1263699 | ||
| MISM1_TS_DEWT_062023.nc | 27-Oct-2024 14:20 | 1223344 | ||
| MISM1_TS_DEWT_071985.nc | 27-Oct-2024 14:20 | 1142175 | ||
| MISM1_TS_DEWT_071986.nc | 27-Oct-2024 14:20 | 1007437 | ||
| MISM1_TS_DEWT_071987.nc | 27-Oct-2024 14:20 | 1256260 | ||
| MISM1_TS_DEWT_071988.nc | 27-Oct-2024 14:20 | 1267625 | ||
| MISM1_TS_DEWT_071989.nc | 27-Oct-2024 14:20 | 1352344 | ||
| MISM1_TS_DEWT_071990.nc | 27-Oct-2024 14:20 | 3440539 | ||
| MISM1_TS_DEWT_071991.nc | 27-Oct-2024 14:20 | 429370 | ||
| MISM1_TS_DEWT_071992.nc | 27-Oct-2024 14:20 | 429358 | ||
| MISM1_TS_DEWT_071993.nc | 27-Oct-2024 14:20 | 429360 | ||
| MISM1_TS_DEWT_071994.nc | 27-Oct-2024 14:20 | 429369 | ||
| MISM1_TS_DEWT_071995.nc | 27-Oct-2024 14:20 | 429364 | ||
| MISM1_TS_DEWT_071996.nc | 27-Oct-2024 14:21 | 429362 | ||
| MISM1_TS_DEWT_071997.nc | 27-Oct-2024 14:21 | 429363 | ||
| MISM1_TS_DEWT_071998.nc | 27-Oct-2024 14:21 | 429362 | ||
| MISM1_TS_DEWT_071999.nc | 27-Oct-2024 14:21 | 429356 | ||
| MISM1_TS_DEWT_072000.nc | 27-Oct-2024 14:21 | 429566 | ||
| MISM1_TS_DEWT_072001.nc | 27-Oct-2024 14:21 | 429566 | ||
| MISM1_TS_DEWT_072002.nc | 27-Oct-2024 14:21 | 429570 | ||
| MISM1_TS_DEWT_072003.nc | 27-Oct-2024 14:21 | 429550 | ||
| MISM1_TS_DEWT_072004.nc | 27-Oct-2024 14:21 | 429570 | ||
| MISM1_TS_DEWT_072005.nc | 27-Oct-2024 14:21 | 429565 | ||
| MISM1_TS_DEWT_072006.nc | 27-Oct-2024 14:21 | 429566 | ||
| MISM1_TS_DEWT_072007.nc | 27-Oct-2024 14:21 | 429497 | ||
| MISM1_TS_DEWT_072008.nc | 27-Oct-2024 14:21 | 1114270 | ||
| MISM1_TS_DEWT_072009.nc | 27-Oct-2024 14:21 | 1109922 | ||
| MISM1_TS_DEWT_072011.nc | 27-Oct-2024 14:21 | 1108290 | ||
| MISM1_TS_DEWT_072012.nc | 27-Oct-2024 14:21 | 994859 | ||
| MISM1_TS_DEWT_072013.nc | 27-Oct-2024 14:21 | 994906 | ||
| MISM1_TS_DEWT_072014.nc | 27-Oct-2024 14:21 | 672482 | ||
| MISM1_TS_DEWT_072015.nc | 27-Oct-2024 14:21 | 1112447 | ||
| MISM1_TS_DEWT_072016.nc | 27-Oct-2024 14:22 | 1105315 | ||
| MISM1_TS_DEWT_072017.nc | 27-Oct-2024 14:22 | 1111493 | ||
| MISM1_TS_DEWT_072018.nc | 27-Oct-2024 14:22 | 429686 | ||
| MISM1_TS_DEWT_072022.nc | 27-Oct-2024 14:22 | 429699 | ||
| MISM1_TS_DEWT_072023.nc | 27-Oct-2024 14:22 | 429689 | ||
| MISM1_TS_DEWT_081985.nc | 27-Oct-2024 14:22 | 429368 | ||
| MISM1_TS_DEWT_081986.nc | 27-Oct-2024 14:22 | 429692 | ||
| MISM1_TS_DEWT_081987.nc | 27-Oct-2024 14:22 | 429686 | ||
| MISM1_TS_DEWT_081988.nc | 27-Oct-2024 14:22 | 429685 | ||
| MISM1_TS_DEWT_081989.nc | 27-Oct-2024 14:22 | 429693 | ||
| MISM1_TS_DEWT_081990.nc | 27-Oct-2024 14:22 | 429693 | ||
| MISM1_TS_DEWT_081991.nc | 27-Oct-2024 14:22 | 429911 | ||
| MISM1_TS_DEWT_081992.nc | 27-Oct-2024 14:22 | 425071 | ||
| MISM1_TS_DEWT_081993.nc | 27-Oct-2024 14:22 | 429909 | ||
| MISM1_TS_DEWT_081994.nc | 27-Oct-2024 14:22 | 429894 | ||
| MISM1_TS_DEWT_081995.nc | 27-Oct-2024 14:22 | 429909 | ||
| MISM1_TS_DEWT_081996.nc | 27-Oct-2024 14:22 | 426852 | ||
| MISM1_TS_DEWT_081997.nc | 27-Oct-2024 14:23 | 429821 | ||
| MISM1_TS_DEWT_081998.nc | 27-Oct-2024 14:23 | 429908 | ||
| MISM1_TS_DEWT_081999.nc | 27-Oct-2024 14:23 | 1265096 | ||
| MISM1_TS_DEWT_082000.nc | 27-Oct-2024 14:23 | 1115503 | ||
| MISM1_TS_DEWT_082001.nc | 27-Oct-2024 14:23 | 1266882 | ||
| MISM1_TS_DEWT_082002.nc | 27-Oct-2024 14:23 | 1143345 | ||
| MISM1_TS_DEWT_082003.nc | 27-Oct-2024 14:23 | 1234651 | ||
| MISM1_TS_DEWT_082004.nc | 27-Oct-2024 14:23 | 1234419 | ||
| MISM1_TS_DEWT_082005.nc | 27-Oct-2024 14:23 | 1247091 | ||
| MISM1_TS_DEWT_082006.nc | 27-Oct-2024 14:23 | 1263832 | ||
| MISM1_TS_DEWT_082007.nc | 27-Oct-2024 14:23 | 474265 | ||
| MISM1_TS_DEWT_082008.nc | 27-Oct-2024 14:23 | 429365 | ||
| MISM1_TS_DEWT_082011.nc | 27-Oct-2024 14:23 | 429364 | ||
| MISM1_TS_DEWT_082012.nc | 27-Oct-2024 14:23 | 429371 | ||
| MISM1_TS_DEWT_082013.nc | 27-Oct-2024 14:23 | 429366 | ||
| MISM1_TS_DEWT_082014.nc | 27-Oct-2024 14:23 | 429359 | ||
| MISM1_TS_DEWT_082015.nc | 27-Oct-2024 14:24 | 429367 | ||
| MISM1_TS_DEWT_082016.nc | 27-Oct-2024 14:24 | 429367 | ||
| MISM1_TS_DEWT_082017.nc | 27-Oct-2024 14:24 | 429354 | ||
| MISM1_TS_DEWT_082018.nc | 27-Oct-2024 14:24 | 429362 | ||
| MISM1_TS_DEWT_082022.nc | 27-Oct-2024 14:24 | 429564 | ||
| MISM1_TS_DEWT_082023.nc | 27-Oct-2024 14:24 | 429567 | ||
| MISM1_TS_DEWT_091984.nc | 27-Oct-2024 14:24 | 429569 | ||
| MISM1_TS_DEWT_091985.nc | 27-Oct-2024 14:24 | 429570 | ||
| MISM1_TS_DEWT_091986.nc | 27-Oct-2024 14:24 | 428563 | ||
| MISM1_TS_DEWT_091987.nc | 27-Oct-2024 14:24 | 429567 | ||
| MISM1_TS_DEWT_091988.nc | 27-Oct-2024 14:24 | 420690 | ||
| MISM1_TS_DEWT_091989.nc | 27-Oct-2024 14:24 | 1112659 | ||
| MISM1_TS_DEWT_091990.nc | 27-Oct-2024 14:24 | 1111045 | ||
| MISM1_TS_DEWT_091991.nc | 27-Oct-2024 14:24 | 1110832 | ||
| MISM1_TS_DEWT_091992.nc | 27-Oct-2024 14:24 | 917789 | ||
| MISM1_TS_DEWT_091993.nc | 27-Oct-2024 14:24 | 1111322 | ||
| MISM1_TS_DEWT_091994.nc | 27-Oct-2024 14:24 | 1101187 | ||
| MISM1_TS_DEWT_091995.nc | 27-Oct-2024 14:24 | 1104834 | ||
| MISM1_TS_DEWT_091996.nc | 27-Oct-2024 14:24 | 1107373 | ||
| MISM1_TS_DEWT_091997.nc | 27-Oct-2024 14:24 | 1099055 | ||
| MISM1_TS_DEWT_091998.nc | 27-Oct-2024 14:24 | 429694 | ||
| MISM1_TS_DEWT_091999.nc | 27-Oct-2024 14:25 | 429687 | ||
| MISM1_TS_DEWT_092000.nc | 27-Oct-2024 14:25 | 429686 | ||
| MISM1_TS_DEWT_092001.nc | 27-Oct-2024 14:25 | 429697 | ||
| MISM1_TS_DEWT_092002.nc | 27-Oct-2024 14:25 | 429698 | ||
| MISM1_TS_DEWT_092003.nc | 27-Oct-2024 14:25 | 429687 | ||
| MISM1_TS_DEWT_092004.nc | 27-Oct-2024 14:25 | 429692 | ||
| MISM1_TS_DEWT_092005.nc | 27-Oct-2024 14:25 | 429698 | ||
| MISM1_TS_DEWT_092006.nc | 27-Oct-2024 14:25 | 429685 | ||
| MISM1_TS_DEWT_092007.nc | 27-Oct-2024 14:25 | 429914 | ||
| MISM1_TS_DEWT_092008.nc | 27-Oct-2024 14:25 | 429907 | ||
| MISM1_TS_DEWT_092010.nc | 27-Oct-2024 14:25 | 429914 | ||
| MISM1_TS_DEWT_092011.nc | 27-Oct-2024 14:25 | 429905 | ||
| MISM1_TS_DEWT_092012.nc | 27-Oct-2024 14:25 | 428503 | ||
| MISM1_TS_DEWT_092013.nc | 27-Oct-2024 14:25 | 429909 | ||
| MISM1_TS_DEWT_092014.nc | 27-Oct-2024 14:25 | 1261767 | ||
| MISM1_TS_DEWT_092015.nc | 27-Oct-2024 14:25 | 1263436 | ||
| MISM1_TS_DEWT_092016.nc | 27-Oct-2024 14:26 | 1266809 | ||
| MISM1_TS_DEWT_092017.nc | 27-Oct-2024 14:26 | 1143217 | ||
| MISM1_TS_DEWT_092018.nc | 27-Oct-2024 14:26 | 1106615 | ||
| MISM1_TS_DEWT_092022.nc | 27-Oct-2024 14:26 | 1267808 | ||
| MISM1_TS_DEWT_101984.nc | 27-Oct-2024 14:26 | 439433 | ||
| MISM1_TS_DEWT_101985.nc | 27-Oct-2024 14:26 | 1256093 | ||
| MISM1_TS_DEWT_101986.nc | 27-Oct-2024 14:26 | 429686 | ||
| MISM1_TS_DEWT_101987.nc | 27-Oct-2024 14:26 | 429693 | ||
| MISM1_TS_DEWT_101988.nc | 27-Oct-2024 14:26 | 429689 | ||
| MISM1_TS_DEWT_101989.nc | 27-Oct-2024 14:26 | 429686 | ||
| MISM1_TS_DEWT_101990.nc | 27-Oct-2024 14:26 | 429697 | ||
| MISM1_TS_DEWT_101991.nc | 27-Oct-2024 14:26 | 429691 | ||
| MISM1_TS_DEWT_101992.nc | 27-Oct-2024 14:26 | 429688 | ||
| MISM1_TS_DEWT_101993.nc | 27-Oct-2024 14:26 | 429693 | ||
| MISM1_TS_DEWT_101994.nc | 27-Oct-2024 14:26 | 429697 | ||
| MISM1_TS_DEWT_101995.nc | 27-Oct-2024 14:26 | 429889 | ||
| MISM1_TS_DEWT_101996.nc | 27-Oct-2024 14:26 | 429911 | ||
| MISM1_TS_DEWT_101997.nc | 27-Oct-2024 14:26 | 429908 | ||
| MISM1_TS_DEWT_101998.nc | 27-Oct-2024 14:27 | 429910 | ||
| MISM1_TS_DEWT_101999.nc | 27-Oct-2024 14:27 | 421009 | ||
| MISM1_TS_DEWT_102000.nc | 27-Oct-2024 14:27 | 418996 | ||
| MISM1_TS_DEWT_102001.nc | 27-Oct-2024 14:27 | 1265264 | ||
| MISM1_TS_DEWT_102002.nc | 27-Oct-2024 14:27 | 1229676 | ||
| MISM1_TS_DEWT_102003.nc | 27-Oct-2024 14:27 | 1261923 | ||
| MISM1_TS_DEWT_102004.nc | 27-Oct-2024 14:27 | 1143178 | ||
| MISM1_TS_DEWT_102005.nc | 27-Oct-2024 14:27 | 1266007 | ||
| MISM1_TS_DEWT_102006.nc | 27-Oct-2024 14:27 | 1265952 | ||
| MISM1_TS_DEWT_102007.nc | 27-Oct-2024 14:27 | 1265448 | ||
| MISM1_TS_DEWT_102008.nc | 27-Oct-2024 14:27 | 1256576 | ||
| MISM1_TS_DEWT_102010.nc | 27-Oct-2024 14:27 | 429349 | ||
| MISM1_TS_DEWT_102011.nc | 27-Oct-2024 14:27 | 429361 | ||
| MISM1_TS_DEWT_102012.nc | 27-Oct-2024 14:27 | 429362 | ||
| MISM1_TS_DEWT_102013.nc | 27-Oct-2024 14:27 | 429367 | ||
| MISM1_TS_DEWT_102014.nc | 27-Oct-2024 14:27 | 429356 | ||
| MISM1_TS_DEWT_102015.nc | 27-Oct-2024 14:27 | 429368 | ||
| MISM1_TS_DEWT_102016.nc | 27-Oct-2024 14:27 | 429366 | ||
| MISM1_TS_DEWT_102017.nc | 27-Oct-2024 14:27 | 429358 | ||
| MISM1_TS_DEWT_102018.nc | 27-Oct-2024 14:28 | 429362 | ||
| MISM1_TS_DEWT_102020.nc | 27-Oct-2024 14:28 | 429563 | ||
| MISM1_TS_DEWT_102022.nc | 27-Oct-2024 14:28 | 429569 | ||
| MISM1_TS_DEWT_102023.nc | 27-Oct-2024 14:28 | 429569 | ||
| MISM1_TS_DEWT_102025.nc | 17-Jan-2026 09:46 | 429568 | ||
| MISM1_TS_DEWT_111984.nc | 27-Oct-2024 14:28 | 429564 | ||
| MISM1_TS_DEWT_111985.nc | 27-Oct-2024 14:28 | 429568 | ||
| MISM1_TS_DEWT_111986.nc | 27-Oct-2024 14:28 | 1113214 | ||
| MISM1_TS_DEWT_111987.nc | 27-Oct-2024 14:28 | 1101606 | ||
| MISM1_TS_DEWT_111988.nc | 27-Oct-2024 14:28 | 1111826 | ||
| MISM1_TS_DEWT_111989.nc | 27-Oct-2024 14:28 | 994824 | ||
| MISM1_TS_DEWT_111990.nc | 27-Oct-2024 14:28 | 1115118 | ||
| MISM1_TS_DEWT_111991.nc | 27-Oct-2024 14:28 | 1113849 | ||
| MISM1_TS_DEWT_111992.nc | 27-Oct-2024 14:28 | 1111536 | ||
| MISM1_TS_DEWT_111993.nc | 27-Oct-2024 14:28 | 1111873 | ||
| MISM1_TS_DEWT_111994.nc | 27-Oct-2024 14:28 | 423331 | ||
| MISM1_TS_DEWT_111995.nc | 27-Oct-2024 14:28 | 429695 | ||
| MISM1_TS_DEWT_111996.nc | 27-Oct-2024 14:29 | 429685 | ||
| MISM1_TS_DEWT_111997.nc | 27-Oct-2024 14:29 | 429686 | ||
| MISM1_TS_DEWT_111998.nc | 27-Oct-2024 14:29 | 429690 | ||
| MISM1_TS_DEWT_111999.nc | 27-Oct-2024 14:29 | 429696 | ||
| MISM1_TS_DEWT_112000.nc | 27-Oct-2024 14:29 | 429686 | ||
| MISM1_TS_DEWT_112001.nc | 27-Oct-2024 14:29 | 429697 | ||
| MISM1_TS_DEWT_112002.nc | 27-Oct-2024 14:29 | 429699 | ||
| MISM1_TS_DEWT_112003.nc | 27-Oct-2024 14:29 | 429690 | ||
| MISM1_TS_DEWT_112004.nc | 27-Oct-2024 14:29 | 429907 | ||
| MISM1_TS_DEWT_112005.nc | 27-Oct-2024 14:29 | 422825 | ||
| MISM1_TS_DEWT_112006.nc | 27-Oct-2024 14:29 | 429906 | ||
| MISM1_TS_DEWT_112007.nc | 27-Oct-2024 14:29 | 429911 | ||
| MISM1_TS_DEWT_112008.nc | 27-Oct-2024 14:29 | 429911 | ||
| MISM1_TS_DEWT_112010.nc | 27-Oct-2024 14:29 | 429910 | ||
| MISM1_TS_DEWT_112011.nc | 27-Oct-2024 14:29 | 429913 | ||
| MISM1_TS_DEWT_112012.nc | 27-Oct-2024 14:29 | 1001015 | ||
| MISM1_TS_DEWT_112013.nc | 27-Oct-2024 14:29 | 1263125 | ||
| MISM1_TS_DEWT_112014.nc | 27-Oct-2024 14:29 | 1014834 | ||
| MISM1_TS_DEWT_112015.nc | 27-Oct-2024 14:29 | 1263555 | ||
| MISM1_TS_DEWT_112016.nc | 27-Oct-2024 14:30 | 1143242 | ||
| MISM1_TS_DEWT_112017.nc | 27-Oct-2024 14:30 | 1266090 | ||
| MISM1_TS_DEWT_112018.nc | 27-Oct-2024 14:30 | 1264063 | ||
| MISM1_TS_DEWT_112020.nc | 27-Oct-2024 14:30 | 1233485 | ||
| MISM1_TS_DEWT_112022.nc | 27-Oct-2024 14:30 | 1262382 | ||
| MISM1_TS_DEWT_112023.nc | 27-Oct-2024 14:30 | 429362 | ||
| MISM1_TS_DEWT_112025.nc | 17-Jan-2026 09:47 | 429337 | ||
| MISM1_TS_DEWT_121984.nc | 27-Oct-2024 14:30 | 429368 | ||
| MISM1_TS_DEWT_121985.nc | 27-Oct-2024 14:30 | 429361 | ||
| MISM1_TS_DEWT_121986.nc | 27-Oct-2024 14:30 | 429356 | ||
| MISM1_TS_DEWT_121987.nc | 27-Oct-2024 14:30 | 429337 | ||
| MISM1_TS_DEWT_121988.nc | 27-Oct-2024 14:30 | 429365 | ||
| MISM1_TS_DEWT_121989.nc | 27-Oct-2024 14:30 | 429362 | ||
| MISM1_TS_DEWT_121990.nc | 27-Oct-2024 14:30 | 429363 | ||
| MISM1_TS_DEWT_121991.nc | 27-Oct-2024 14:30 | 429368 | ||
| MISM1_TS_DEWT_121992.nc | 27-Oct-2024 14:30 | 429570 | ||
| MISM1_TS_DEWT_121993.nc | 27-Oct-2024 14:30 | 429567 | ||
| MISM1_TS_DEWT_121994.nc | 27-Oct-2024 14:30 | 429564 | ||
| MISM1_TS_DEWT_121995.nc | 27-Oct-2024 14:30 | 429568 | ||
| MISM1_TS_DEWT_121996.nc | 27-Oct-2024 14:30 | 429566 | ||
| MISM1_TS_DEWT_121997.nc | 27-Oct-2024 14:30 | 429566 | ||
| MISM1_TS_DEWT_121998.nc | 27-Oct-2024 14:30 | 429570 | ||
| MISM1_TS_DEWT_121999.nc | 27-Oct-2024 14:31 | 1110680 | ||
| MISM1_TS_DEWT_122000.nc | 27-Oct-2024 14:31 | 1097755 | ||
| MISM1_TS_DEWT_122001.nc | 27-Oct-2024 14:31 | 1110088 | ||
| MISM1_TS_DEWT_122002.nc | 27-Oct-2024 14:31 | 1109220 | ||
| MISM1_TS_DEWT_122003.nc | 27-Oct-2024 14:31 | 994899 | ||
| MISM1_TS_DEWT_122004.nc | 27-Oct-2024 14:31 | 1106659 | ||
| MISM1_TS_DEWT_122005.nc | 27-Oct-2024 14:31 | 1107975 | ||
| MISM1_TS_DEWT_122006.nc | 27-Oct-2024 14:31 | 1080549 | ||
| MISM1_TS_DEWT_122007.nc | 27-Oct-2024 14:31 | 1097396 | ||
| MISM1_TS_DEWT_122008.nc | 27-Oct-2024 14:31 | 429692 | ||
| MISM1_TS_DEWT_122011.nc | 27-Oct-2024 14:31 | 429692 | ||
| MISM1_TS_DEWT_122012.nc | 27-Oct-2024 14:31 | 429684 | ||
| MISM1_TS_DEWT_122013.nc | 27-Oct-2024 14:31 | 429693 | ||
| MISM1_TS_DEWT_122014.nc | 27-Oct-2024 14:31 | 429696 | ||
| MISM1_TS_DEWT_122015.nc | 27-Oct-2024 14:31 | 429685 | ||
| MISM1_TS_DEWT_122016.nc | 27-Oct-2024 14:31 | 429691 | ||
| MISM1_TS_DEWT_122017.nc | 27-Oct-2024 14:31 | 420290 | ||
| MISM1_TS_DEWT_122018.nc | 27-Oct-2024 14:31 | 429692 | ||
| MISM1_TS_DEWT_122020.nc | 27-Oct-2024 14:31 | 429686 | ||
| MISM1_TS_DEWT_122022.nc | 27-Oct-2024 14:31 | 429910 | ||
| MISM1_TS_DEWT_122023.nc | 27-Oct-2024 14:32 | 429908 | ||
| MISM1_TS_DEWT_122025.nc | 17-Jan-2026 09:48 | 429914 | ||